EZY8LG EGKK-LGTS

Flight info

Callsign EZY8LG
Flight time N/A
Altitude 37000
Route ODVIK Y311 DVR UL9 KONAN DCT KOK DCT RITAX DCT BANUX DCT BABEG DCT KUMOM DCT LUMUS DCT KUSIB DCT OKSIG DCT MARIL DCT BOSNA DCT MODRA DCT MEDUX UM867 KOGAT DCT TALAS N130 ALIKO
Aircraft A320/M-SDE3FGHIRWY/LB1

Departure

Time N/A
Airport London Gatwick Airport (EGKK)

Arrival

Time 2026-04-29 12:39
Airport Thessaloniki Macedonia International Airport (LGTS)
Time Latitude Longitude Altitude Speed Heading
2026-04-29 11:46 44.59923 17.38870 37194 ft 496 kts 133°
2026-04-29 11:46 44.55411 17.46254 37184 ft 495 kts 133°
2026-04-29 11:47 44.50914 17.53582 37185 ft 495 kts 133°
2026-04-29 11:47 44.46403 17.60887 37178 ft 495 kts 133°
2026-04-29 11:48 44.41893 17.68184 37171 ft 495 kts 133°
2026-04-29 11:48 44.37398 17.75414 37167 ft 495 kts 134°
2026-04-29 11:49 44.32672 17.82399 37162 ft 494 kts 138°
2026-04-29 11:49 44.27730 17.89050 37160 ft 494 kts 140°
2026-04-29 11:50 44.22760 17.95690 37163 ft 494 kts 139°
2026-04-29 11:50 44.17857 18.02406 37161 ft 494 kts 138°
2026-04-29 11:51 44.12985 18.09151 37159 ft 494 kts 138°
2026-04-29 11:51 44.08097 18.15871 37142 ft 493 kts 139°
2026-04-29 11:52 44.03193 18.22553 37138 ft 493 kts 139°
2026-04-29 11:52 43.98283 18.29224 37129 ft 493 kts 139°
2026-04-29 11:53 43.93406 18.35847 37118 ft 494 kts 139°
2026-04-29 11:53 43.88496 18.42502 37118 ft 494 kts 139°
2026-04-29 11:54 43.83574 18.49165 37120 ft 494 kts 139°
2026-04-29 11:54 43.78653 18.55804 37124 ft 494 kts 139°
2026-04-29 11:55 43.73732 18.62426 37125 ft 494 kts 139°
2026-04-29 11:55 43.69640 18.67930 37117 ft 494 kts 139°
2026-04-29 11:56 43.64711 18.74532 37111 ft 493 kts 139°
2026-04-29 11:56 43.59775 18.81113 37108 ft 493 kts 139°
2026-04-29 11:57 43.54845 18.87695 37102 ft 493 kts 139°
2026-04-29 11:57 43.49916 18.94264 37103 ft 493 kts 139°
2026-04-29 11:58 43.44981 19.00802 37107 ft 492 kts 139°
2026-04-29 11:58 43.40045 19.07333 37105 ft 492 kts 139°
2026-04-29 11:59 43.35106 19.13857 37106 ft 492 kts 139°
2026-04-29 11:59 43.30167 19.20363 37098 ft 492 kts 139°
2026-04-29 12:00 43.25221 19.26852 37095 ft 492 kts 139°
2026-04-29 12:00 43.20272 19.33336 37095 ft 492 kts 139°
2026-04-29 12:01 43.15334 19.39807 37097 ft 491 kts 139°
2026-04-29 12:01 43.10383 19.46268 37104 ft 491 kts 139°
2026-04-29 12:02 43.05431 19.52712 37095 ft 491 kts 139°
2026-04-29 12:02 43.00525 19.59209 37083 ft 492 kts 134°
2026-04-29 12:03 42.96210 19.66406 37079 ft 493 kts 131°
2026-04-29 12:03 42.91880 19.73670 37081 ft 493 kts 131°
2026-04-29 12:04 42.87551 19.80910 37082 ft 493 kts 131°
2026-04-29 12:04 42.83208 19.88146 37082 ft 493 kts 131°
2026-04-29 12:05 42.78860 19.95369 37080 ft 493 kts 131°
2026-04-29 12:05 42.74513 20.02577 37069 ft 493 kts 131°
2026-04-29 12:06 42.70163 20.09789 37070 ft 492 kts 131°
2026-04-29 12:06 42.65817 20.16970 37070 ft 492 kts 131°
2026-04-29 12:07 42.61494 20.24090 37076 ft 491 kts 131°
2026-04-29 12:07 42.57115 20.31274 37077 ft 490 kts 131°
2026-04-29 12:08 42.52791 20.38352 37079 ft 490 kts 131°
2026-04-29 12:08 42.48436 20.45461 37078 ft 490 kts 131°
2026-04-29 12:09 42.44082 20.52555 37075 ft 489 kts 131°
2026-04-29 12:09 42.39722 20.59642 37070 ft 489 kts 131°
2026-04-29 12:10 42.35368 20.66716 37069 ft 490 kts 131°
2026-04-29 12:10 42.31001 20.73790 37071 ft 490 kts 131°
2026-04-29 12:11 42.26624 20.80845 37073 ft 490 kts 131°
2026-04-29 12:11 42.22248 20.87901 37075 ft 490 kts 131°
2026-04-29 12:12 42.17869 20.94944 37078 ft 490 kts 131°
2026-04-29 12:12 42.13481 21.01975 37079 ft 489 kts 133°
2026-04-29 12:13 42.08408 21.07960 37072 ft 483 kts 150°
2026-04-29 12:13 42.02723 21.12772 37073 ft 482 kts 151°
2026-04-29 12:14 41.97039 21.17573 37005 ft 481 kts 151°
2026-04-29 12:14 41.94207 21.19961 36396 ft 481 kts 150°
2026-04-29 12:14 41.91411 21.22314 35718 ft 481 kts 151°
2026-04-29 12:15 41.88571 21.24700 35039 ft 481 kts 151°
2026-04-29 12:15 41.85734 21.27083 34341 ft 482 kts 151°
2026-04-29 12:15 41.82892 21.29465 33615 ft 482 kts 151°
2026-04-29 12:15 41.80056 21.31843 32912 ft 479 kts 151°
2026-04-29 12:16 41.77247 21.34199 32402 ft 474 kts 151°
2026-04-29 12:16 41.74463 21.36532 31874 ft 469 kts 151°
2026-04-29 12:16 41.71710 21.38837 31336 ft 465 kts 151°
2026-04-29 12:16 41.68969 21.41128 30601 ft 465 kts 150°
2026-04-29 12:17 41.66220 21.43419 29929 ft 464 kts 151°
2026-04-29 12:17 41.63488 21.45689 29311 ft 461 kts 151°
2026-04-29 12:17 41.60775 21.47941 28730 ft 456 kts 151°
2026-04-29 12:17 41.58058 21.50195 27571 ft 464 kts 151°
2026-04-29 12:18 41.55302 21.52477 26718 ft 466 kts 151°
2026-04-29 12:18 41.52550 21.54757 26040 ft 463 kts 150°
2026-04-29 12:18 41.49829 21.57016 25427 ft 459 kts 150°
2026-04-29 12:18 41.47162 21.59229 24723 ft 456 kts 151°
2026-04-29 12:19 41.44429 21.61490 23617 ft 466 kts 151°
2026-04-29 12:19 41.41667 21.63769 22725 ft 466 kts 151°
2026-04-29 12:19 41.38927 21.66030 21994 ft 462 kts 150°
2026-04-29 12:19 41.36201 21.68281 21319 ft 457 kts 150°
2026-04-29 12:20 41.33511 21.70500 20667 ft 453 kts 150°
2026-04-29 12:20 41.30841 21.72695 20045 ft 449 kts 150°
2026-04-29 12:20 41.28193 21.74868 19424 ft 445 kts 150°
2026-04-29 12:20 41.25573 21.77018 18820 ft 441 kts 150°
2026-04-29 12:21 41.22972 21.79152 18184 ft 438 kts 150°
2026-04-29 12:21 41.20392 21.81268 17557 ft 433 kts 150°
2026-04-29 12:21 41.17846 21.83357 16960 ft 428 kts 150°
2026-04-29 12:21 41.15333 21.85418 16407 ft 422 kts 150°
2026-04-29 12:22 41.12848 21.87452 15840 ft 417 kts 150°
2026-04-29 12:22 41.10391 21.89460 15299 ft 412 kts 150°
2026-04-29 12:22 41.08075 21.91674 14797 ft 409 kts 140°
2026-04-29 12:22 41.06119 21.94385 14291 ft 406 kts 129°
2026-04-29 12:23 41.04422 21.97362 13740 ft 403 kts 128°
2026-04-29 12:23 41.02752 22.00311 13128 ft 398 kts 128°
2026-04-29 12:23 41.01095 22.03231 12555 ft 394 kts 128°
2026-04-29 12:23 40.99453 22.06120 11950 ft 391 kts 128°
2026-04-29 12:24 40.97825 22.08983 11368 ft 388 kts 128°
2026-04-29 12:24 40.96209 22.11822 10779 ft 384 kts 128°
2026-04-29 12:24 40.94606 22.14633 10200 ft 381 kts 128°
2026-04-29 12:24 40.93015 22.17418 9594 ft 378 kts 128°
2026-04-29 12:25 40.91447 22.20158 9321 ft 366 kts 128°
2026-04-29 12:25 40.89948 22.22776 9182 ft 350 kts 128°
2026-04-29 12:25 40.87113 22.27720 8924 ft 325 kts 128°
2026-04-29 12:26 40.85771 22.30055 8779 ft 310 kts 128°
2026-04-29 12:26 40.84548 22.32185 8559 ft 298 kts 128°
2026-04-29 12:26 40.83309 22.34343 8306 ft 293 kts 128°
2026-04-29 12:26 40.82081 22.36477 7981 ft 291 kts 129°
2026-04-29 12:27 40.80859 22.38598 7628 ft 290 kts 128°
2026-04-29 12:27 40.79637 22.40713 7294 ft 288 kts 128°
2026-04-29 12:27 40.78425 22.42809 6952 ft 286 kts 128°
2026-04-29 12:27 40.77221 22.44899 6594 ft 285 kts 127°
2026-04-29 12:28 40.76088 22.47040 6240 ft 284 kts 125°
2026-04-29 12:28 40.75024 22.49224 5903 ft 282 kts 123°
2026-04-29 12:28 40.73991 22.51412 5577 ft 280 kts 123°
2026-04-29 12:28 40.72969 22.53582 5272 ft 278 kts 123°
2026-04-29 12:29 40.71947 22.55733 4917 ft 275 kts 123°
2026-04-29 12:29 40.70943 22.57832 4586 ft 272 kts 123°
2026-04-29 12:29 40.69919 22.59959 4301 ft 270 kts 123°
2026-04-29 12:29 40.68917 22.62030 3939 ft 266 kts 123°
2026-04-29 12:30 40.67938 22.64052 3591 ft 264 kts 123°
2026-04-29 12:30 40.67133 22.66183 3501 ft 255 kts 106°
2026-04-29 12:30 40.66975 22.68423 3499 ft 240 kts 84°
2026-04-29 12:30 40.67416 22.70495 3509 ft 234 kts 64°
2026-04-29 12:31 40.68339 22.72177 3504 ft 221 kts 45°
2026-04-29 12:31 40.69440 22.73534 3515 ft 215 kts 46°
2026-04-29 12:31 40.70472 22.74950 3503 ft 214 kts 49°
2026-04-29 12:31 40.71439 22.76448 3503 ft 214 kts 52°
2026-04-29 12:32 40.72333 22.78012 3506 ft 214 kts 56°
2026-04-29 12:32 40.73152 22.79646 3506 ft 213 kts 59°
2026-04-29 12:32 40.73843 22.81370 3489 ft 211 kts 76°
2026-04-29 12:32 40.73994 22.83219 3493 ft 197 kts 91°
2026-04-29 12:33 40.73971 22.84985 3494 ft 190 kts 93°
2026-04-29 12:33 40.73925 22.86725 3495 ft 189 kts 96°
2026-04-29 12:33 40.73600 22.88380 3527 ft 186 kts 116°
2026-04-29 12:33 40.72858 22.89766 3505 ft 185 kts 137°
2026-04-29 12:34 40.71800 22.90702 3493 ft 184 kts 157°
2026-04-29 12:34 40.70566 22.91165 3446 ft 184 kts 166°
2026-04-29 12:34 40.69343 22.91555 3264 ft 178 kts 165°
2026-04-29 12:34 40.68159 22.91934 3058 ft 173 kts 165°
2026-04-29 12:35 40.66985 22.92309 2836 ft 174 kts 165°
2026-04-29 12:35 40.66207 22.92557 2683 ft 174 kts 166°
2026-04-29 12:35 40.64644 22.93056 2377 ft 172 kts 167°
2026-04-29 12:35 40.63474 22.93429 2137 ft 173 kts 166°
2026-04-29 12:36 40.62318 22.93799 1910 ft 169 kts 166°
2026-04-29 12:36 40.61198 22.94156 1689 ft 160 kts 166°
2026-04-29 12:36 40.60162 22.94486 1480 ft 145 kts 166°
2026-04-29 12:36 40.59527 22.94688 1361 ft 140 kts 167°
2026-04-29 12:37 40.58601 22.94983 1164 ft 136 kts 168°
2026-04-29 12:37 40.57395 22.95368 917 ft 135 kts 169°
2026-04-29 12:37 40.56483 22.95658 741 ft 135 kts 169°
2026-04-29 12:37 40.55867 22.95853 628 ft 135 kts 170°
2026-04-29 12:38 40.54965 22.96143 441 ft 131 kts 168°
2026-04-29 12:38 40.54086 22.96429 337 ft 130 kts 170°
2026-04-29 12:38 40.53211 22.96708 133 ft 128 kts 169°
2026-04-29 12:38 40.52369 22.96968 28 ft 112 kts 167°
2026-04-29 12:39 40.51775 22.97159 29 ft 63 kts 166°
2026-04-29 12:39 40.51398 22.97279 31 ft 49 kts 166°
2026-04-29 12:39 40.51097 22.97376 28 ft 36 kts 165°
2026-04-29 12:39 40.50965 22.97493 28 ft 18 kts 100°
2026-04-29 12:40 40.51038 22.97575 29 ft 15 kts 353°
2026-04-29 12:40 40.51133 22.97544 29 ft 14 kts 345°
2026-04-29 12:40 40.51220 22.97515 29 ft 13 kts 345°
2026-04-29 12:40 40.51307 22.97487 29 ft 16 kts 347°
2026-04-29 12:41 40.51420 22.97454 29 ft 16 kts 347°
2026-04-29 12:41 40.51525 22.97423 29 ft 15 kts 346°
2026-04-29 12:41 40.51661 22.97378 29 ft 23 kts 346°
2026-04-29 12:41 40.51813 22.97328 28 ft 22 kts 346°
2026-04-29 12:42 40.51969 22.97280 26 ft 23 kts 346°
2026-04-29 12:42 40.52097 22.97255 28 ft 15 kts 27°
2026-04-29 12:42 40.52093 22.97368 28 ft 15 kts 108°
2026-04-29 12:42 40.52060 22.97533 28 ft 20 kts 103°
2026-04-29 12:43 40.52033 22.97683 29 ft 13 kts 96°
2026-04-29 12:43 40.52079 22.97737 29 ft 10 kts 341°
2026-04-29 12:43 40.52129 22.97679 29 ft 9 kts 316°
2026-04-29 12:43 40.52173 22.97637 29 ft 4 kts 326°
2026-04-29 12:44 40.52176 22.97634 28 ft 0 kts 326°
2026-04-29 12:44 40.52185 22.97627 28 ft 6 kts 331°
2026-04-29 12:44 40.52216 22.97651 29 ft 5 kts 46°
2026-04-29 12:44 40.52238 22.97681 28 ft 4 kts 45°
2026-04-29 12:45 40.52244 22.97688 28 ft 0 kts 45°
2026-04-29 12:45 40.52248 22.97694 28 ft 2 kts 45°